Simultaneous Nadir Overpasses (SNOs) Predictions

Prediction of SNOs between AQUA and GOES-15 Satellite Orbit:

Table of predicted SNOs for the next 14.0 days since TLE Epoch: 5/11/2024
Index Date Time (AQUA) AQUA Lat,Lon GOES-15 Lat,Lon Distance(km) Time Diff (sec)
1 05/11/2024 22:03:36 0.14, 61.10 0.02, 61.59 56.05 80
2 05/13/2024 21:47:15 -0.72, 65.10 0.02, 61.63 394.37 80
3 05/14/2024 10:07:34 -0.33, 60.18 -0.01, 61.64 166.81 80
4 05/16/2024 09:51:08 0.51, 64.20 -0.02, 61.69 285.60 80
5 05/16/2024 22:11:17 0.54, 59.32 -0.00, 61.69 270.30 80
6 05/18/2024 21:54:47 -0.34, 63.36 0.00, 61.74 184.11 80
7 05/19/2024 10:15:04 -0.67, 58.44 0.01, 61.75 375.69 80
8 05/21/2024 09:58:29 0.19, 62.50 0.01, 61.80 80.10 80
9 05/21/2024 22:18:36 0.84, 57.63 -0.03, 61.81 475.53 80
10 05/23/2024 22:01:56 -0.00, 61.71 -0.03, 61.87 18.50 80
